ハートレー第1彗星

100P/Hartley 1 (1997)

English version
Home page
Updated on February 24, 2002

---------------------------------------------------------------------

・ プロフィール

・ 軌道要素

   The following improved orbital elements by Kenji Muraoka, are 
  from 100 observations 1985 to 1997, perturbations by 9 Plantes,
  Moon and 5 minor planets were taken into account. 
   The mean residual is +/- 0.78 arc seconds.

      Epoch  =  1997 June  1.0  TT       JDT = 2450600.5
          T  =  1997 May  28.51692       +/- 0.00009 (m.e.) TT
       Peri. =  178.93279                +/- 0.00004
       Node  =   38.90298                +/- 0.00006   (2000.0)
       Incl. =   25.72329                +/- 0.00005
          q  =    1.8186831              +/- 0.0000032 AU
          e  =    0.4506090              +/- 0.0000008
          a  =    3.3103621              +/- 0.0000023 AU
          n  =    0.16364051             +/- 0.00000017
          P  =    6.023                  +/- 0.0000063  years

・ 星図

・ 1996年11月 3日〜1997年12月28日

・ 光度変化

        m1 = 2.0 + 5 logΔ + 50.0 log r

---------------------------------------------------------------------

軌道要素は村岡健治氏の計算によるものです。
星図は StellaNavigator Ver.2.0 for Windows (アストロアーツ 編著 / アスキー出版局刊) で作成したものです。
光度グラフはComet for Windowsで作成したものです。

---------------------------------------------------------------------

Copyright(C) Seiichi Yoshida (comet@aerith.net). All rights reserved.